Skip Page Navigation
NASA JPL Caltech
NASA Logo - Jet Propulsion Laboratory + View the NASA Portal
+ Center for Near-Earth Object Studies
JPL Home Earth Solar System Stars & Galaxies Technology
JPL Solar System Dynamics
BODIES ORBITS EPHEMERIDES TOOLS PHYSICAL DATA DISCOVERY FAQ SITE MAP
JPL Small-Body Database Browser
Search: [ help ]  
58020 (2002 VE17)
Classification: Main-belt Asteroid          SPK-ID: 2058020
Ephemeris | Orbit Diagram | Orbital Elements | Mission Design | Physical Parameters | Discovery Circumstances | Close-Approach Data ]

[ show orbit diagram ]
Orbital Elements at Epoch 2459000.5 (2020-May-31.0) TDB
Reference: JPL 21 (heliocentric ecliptic J2000)
 Element Value Uncertainty (1-sigma)   Units 
e .2760353129720988 3.1819e-08  
a 3.078238861131275 1.6521e-08 au
q 2.228536233696027 9.4962e-08 au
i 13.18742008839525 6.4257e-06 deg
node 198.2032371927843 1.609e-05 deg
peri 269.8977020095517 2.0648e-05 deg
M 64.64765931352768 1.0901e-05 deg
tp 2458646.256242277441
(2019-Jun-11.75624228)
5.9193e-05 TDB
period 1972.65847107686
5.40
1.5881e-05
4.348e-08
d
yr
n .1824948440281599 1.4692e-09 deg/d
Q 3.927941488566524 2.1082e-08 au
  Orbit Determination Parameters
   # obs. used (total)      1068  
   data-arc span      9975 days (27.31 yr)  
   first obs. used      1993-03-21  
   last obs. used      2020-07-12  
   planetary ephem.      DE431  
   SB-pert. ephem.      SB431-N16  
   condition code      0  
   norm. resid. RMS      .49759  
   source      ORB  
   producer      Otto Matic  
   solution date      2020-Nov-12 22:52:41  

Additional Information
 Earth MOID = 1.29086 au 
 Jupiter MOID = 1.59956 au 
 T_jup = 3.130 
[ show covariance matrix ]

Ephemeris | Orbit Diagram | Orbital Elements | Mission Design | Physical Parameters | Discovery Circumstances | Close-Approach Data ]

Physical Parameter Table
Parameter Symbol Value Units Sigma Reference Notes
absolute magnitude H 14.37   n/a E2021B10  
diameter diameter 6.068 km 1.452 urn:nasa:pds:neowise_diameters_albedos::2.0[mainbelt] (http://adsabs.harvard.edu/abs/2015ApJ...814..117N)  
rotation period rot_per 24.3357 h n/a LCDB (Rev. 2020-October); Warner et al., 2009 Result based on less than full coverage, so that the period may be wrong by 30 percent or so.
Published Reference List:
[Pal, A.; Szakats, R.; Kiss, C.; Bodi, A.; et al. (2019) Ap. J. Supl. Ser. 247, id.26.]
geometric albedo albedo 0.110   0.056 urn:nasa:pds:neowise_diameters_albedos::2.0[mainbelt] (http://adsabs.harvard.edu/abs/2015ApJ...814..117N)  

58020 (2002 VE17)          Discovered 2002-Nov-05 by LINEAR at Socorro
Reference: 20030318/Numbers.arcLast Updated: 2004-04-19

[ show close-approach data ]
Alternate Designations
 2002 VE17 = 1996 TZ48 
Ephemeris | Orbit Diagram | Orbital Elements | Mission Design | Physical Parameters | Discovery Circumstances | Close-Approach Data ]
ABOUT SSD CREDITS/AWARDS PRIVACY/COPYRIGHT GLOSSARY LINKS
FirstGov 2021-Feb-27 05:21 UT
(server date/time)  
NASA Home Page
Site Manager:   Ryan S. Park
Webmaster  Alan B. Chamberlin